Home   Weather   Esfahãn   Past weeks

Flag for Iran Past Weather in Esfahãn, Iran — Yesterday and Last 2 Weeks

Now
66 °F

Clear.


Feels Like: 66 °F
Forecast: 49 / 82 °F
Wind: 5 mph from Southeast

Location: Esfahan

Current Time: Apr 23, 2017 at 10:13:47 pm

Latest Report: Apr 23, 2017 at 9:30 pm


Visibility: 10 mi

Pressure: 30.07 "Hg (25.01 "Hg at 1576m altitude)

Humidity: 10%

Dew Point: 9 °F

Location of EsfahãnLocation

Past Weather in Esfahãn — Graph

°F

Esfahãn Temperature Yesterday

Maximum temperature yesterday: 81 °F (at 4:00 pm)
Minimum temperature yesterday: 37 °F (at 6:00 am)
Average temperature yesterday: 62 °F

High & Low Weather Summary for the Past Weeks

 TemperatureHumidityPressure
High86 °F (Apr 12, 3:00 pm)72% (Apr 16, 1:30 pm)30.30 "Hg (Apr 16, 1:30 pm)
Low37 °F (Apr 22, 6:00 am)5% (Apr 21, 5:30 pm)29.98 "Hg (Apr 15, 7:30 pm)
Average65 °F28%30.12 "Hg
* Reported Apr 8 8:30 pm — Apr 23 9:00 pm, Esfahãn, Weather by CustomWeather, © 2017

Note: Actual official high and low records may vary slightly from our data, if they occured in-between our weather recording intervals... More about our weather records

Advertising

Esfahãn Weather History for the Previous 24 Hours

Scroll right to see more
 ConditionsComfort  
Time TempWeatherWind HumidityBarometerVisibility
9:00 pm
Sun, Apr 23
70 °FClear.No wind8%30.07 "Hg10 mi
8:30 pm75 °FClear.5 mph7%30.04 "Hg10 mi
8:00 pm77 °FSunny.5 mph8%30.04 "Hg10 mi
7:30 pm79 °FSunny.5 mph8%30.07 "Hg10 mi
7:00 pm81 °FSunny.No wind6%30.07 "Hg10 mi
6:30 pm82 °FSunny.7 mph6%30.07 "Hg10 mi
6:00 pm82 °FSunny.5 mph6%30.07 "Hg10 mi
5:30 pm82 °FSunny.5 mph6%30.07 "Hg10 mi
5:00 pm82 °FSunny.5 mph6%30.07 "Hg10 mi
4:30 pm82 °FSunny.No wind7%30.09 "Hg10 mi
4:00 pm81 °FSunny.5 mph7%30.09 "Hg10 mi
3:30 pm81 °FSunny.9 mph7%30.12 "Hg10 mi
3:00 pm81 °FSunny.9 mph8%30.12 "Hg10 mi
2:30 pm81 °FSunny.7 mph8%30.15 "Hg10 mi
2:00 pm81 °FSunny.5 mph7%30.15 "Hg10 mi
1:30 pm81 °FSunny.7 mph7%30.18 "Hg10 mi
1:00 pm79 °FSunny.9 mph10%30.18 "Hg10 mi
12:30 pm77 °FSunny.9 mph11%30.21 "Hg10 mi
11:30 am75 °FSunny.9 mph12%30.24 "Hg10 mi
11:00 am72 °FSunny.No wind15%30.24 "Hg10 mi
10:30 am70 °FSunny.No wind17%30.24 "Hg10 mi
10:00 am68 °FSunny.5 mph18%30.24 "Hg10 mi
9:30 am63 °FSunny.No wind22%30.24 "Hg10 mi
9:00 am59 °FSunny.5 mph23%30.24 "Hg10 mi
8:30 am55 °FSunny.No wind26%30.24 "Hg10 mi
8:00 am52 °FSunny.5 mph30%30.24 "Hg10 mi
7:30 am48 °FSunny.No wind32%30.21 "Hg10 mi
7:00 am48 °FSunny.No wind34%30.21 "Hg10 mi
6:30 am46 °FClear.No wind40%30.21 "Hg4 mi
6:00 am45 °FClear.5 mph37%30.21 "Hg10 mi
5:30 am46 °FClear.5 mph34%30.18 "Hg10 mi
5:00 am46 °FClear.5 mph37%30.18 "Hg10 mi
4:30 am52 °FClear.7 mph26%30.18 "Hg10 mi
4:00 am46 °FClear.7 mph29%30.18 "Hg10 mi
3:30 am52 °FClear.No wind28%30.18 "Hg10 mi
3:00 am52 °FClear.7 mph28%30.18 "Hg10 mi
2:30 am52 °FClear.7 mph26%30.18 "Hg10 mi
2:00 am54 °FClear.5 mph21%30.18 "Hg10 mi
1:30 am59 °FClear.5 mph18%30.18 "Hg10 mi
1:00 am59 °FClear.7 mph17%30.18 "Hg10 mi
12:30 am61 °FClear.5 mph17%30.18 "Hg10 mi
12:00 am59 °FClear.5 mph20%30.18 "Hg10 mi
11:00 pm
Sat, Apr 22
63 °FClear.5 mph15%30.18 "Hg10 mi
10:30 pm63 °FClear.9 mph17%30.15 "Hg10 mi
10:00 pm66 °FClear.5 mph14%30.15 "Hg10 mi
Weather by CustomWeather, © 2017

See weather overviewHow to use our weather pages